Location: Novo Ouro Preto
(19.8840°S, 43.9844°W)
Time: 09:33:45
(UTC+00:00)

Atlas Centaur 2 - Pass Details

Date: 18 September 2020
Orbit: 459 x 1310 km, 30.4° (Epoch: 22 October)

Event Time Altitude Azimuth Distance (km) Brightness Sun altitude
Rises 23:09:45 0° 306° (NW) 3,497 5.9 -33.2°
Reaches altitude 10° 23:12:39 10° 310° (NW) 2,407 4.9 -33.9°
Enters shadow 23:14:34 20° 316° (NW) 1,709 4.0 -34.3°
